GW4124 Weather Reports


time (UTC)temp
C
wind
direction
speed
KPH
gust
KPH
rain 1hr
cm
rain 24hr
cm
rain mn
cm
humidity
%
barometer
mb
20260906165227 33 178 6.4 9.7 0.00 0.00 0.00 63 1017.9
20260906164726 32 160 3.2 4.8 0.00 0.00 0.00 65 1017.9
20260906164216 32 168 9.7 12.9 0.00 0.00 0.00 67 1017.8
20260906163712 31 142 1.6 9.7 0.00 0.00 0.00 69 1017.9
20260906163208 32 149 4.8 6.4 0.00 0.00 0.00 67 1017.8
20260906162705 31 218 4.8 9.7 0.00 0.00 0.00 69 1018.0
20260906162205 32 157 3.2 4.8 0.00 0.00 0.00 68 1018.0
20260906161659 31 185 3.2 6.4 0.00 0.00 0.00 69 1018.0
20260906161158 31 157 3.2 6.4 0.00 0.00 0.00 71 1018.0
20260906160657 31 159 3.2 4.8 0.00 0.00 0.00 70 1018.1
20260906160156 30 138 1.6 6.4 0.00 0.00 0.00 72 1018.2
20260906155654 30 157 4.8 9.7 0.00 0.00 0.00 73 1018.3
20260906155150 30 168 1.6 14.5 0.00 0.00 0.00 74 1018.0
20260906154645 30 155 0.0 12.9 0.00 0.00 0.00 75 1018.3
20260906154145 30 184 4.8 9.7 0.00 0.00 0.00 75 1018.1
20260906153644 29 153 0.0 4.8 0.00 0.00 0.00 75 1018.3
20260906153138 30 190 3.2 4.8 0.00 0.00 0.00 76 1018.2
20260906152633 30 179 3.2 9.7 0.00 0.00 0.00 77 1018.2
20260906152127 30 161 3.2 4.8 0.00 0.00 0.00 75 1018.2
20260906151622 28 147 3.2 9.7 0.00 0.00 0.00 78 1018.3
20260906151118 28 197 6.4 9.7 0.00 0.00 0.00 79 1018.3
20260906150613 29 159 3.2 6.4 0.00 0.00 0.00 77 1018.3
20260906150109 28 167 1.6 6.4 0.00 0.00 0.00 80 1018.4
20260906145607 28 165 1.6 4.8 0.00 0.00 0.00 80 1018.4
20260906145102 28 211 8.0 11.3 0.00 0.00 0.00 81 1018.2
20260906144556 28 158 1.6 4.8 0.00 0.00 0.00 79 1018.2
20260906144052 28 180 3.2 9.7 0.00 0.00 0.00 82 1018.1
20260906143546 27 153 0.0 11.3 0.00 0.00 0.00 82 1018.0
20260906143037 28 194 3.2 4.8 0.00 0.00 0.00 81 1018.1
20260906142531 27 154 0.0 6.4 0.00 0.00 0.00 82 1018.1
20260906142027 28 169 1.6 3.2 0.00 0.00 0.00 80 1018.0
20260906141525 27 157 1.6 9.7 0.00 0.00 0.00 82 1018.0
20260906141020 27 154 0.0 9.7 0.00 0.00 0.00 84 1018.2
20260906140515 27 160 3.2 4.8 0.00 0.00 0.00 84 1018.2
20260906140014 27 165 3.2 4.8 0.00 0.00 0.00 85 1018.0
20260906135511 27 183 8.0 12.9 0.00 0.00 0.00 85 1018.4
20260906135007 26 182 1.6 3.2 0.00 0.00 0.00 86 1018.2
20260906134503 27 232 3.2 11.3 0.00 0.00 0.00 85 1018.0
20260906134002 27 142 1.6 3.2 0.00 0.00 0.00 84 1018.2
20260906133458 26 157 3.2 9.7 0.00 0.00 0.00 86 1018.2
20260906132954 26 153 0.0 1.6 0.00 0.00 0.00 88 1018.3
20260906132449 26 171 4.8 11.3 0.00 0.00 0.00 89 1018.1
20260906131944 26 160 1.6 3.2 0.00 0.00 0.00 88 1018.1
20260906131439 26 156 1.6 6.4 0.00 0.00 0.00 90 1018.2
20260906130935 26 157 1.6 3.2 0.00 0.00 0.00 89 1017.9
20260906130434 25 169 3.2 3.2 0.00 0.00 0.00 91 1018.1
20260906125928 25 166 3.2 6.4 0.00 0.00 0.00 92 1017.9
20260906125425 25 164 4.8 6.4 0.00 0.00 0.00 92 1018.0
20260906124920 25 165 3.2 4.8 0.00 0.00 0.00 92 1017.9
20260906124416 25 159 1.6 3.2 0.00 0.00 0.00 93 1017.8
20260906123915 25 158 0.0 1.6 0.00 0.00 0.00 93 1017.7
20260906123410 25 158 0.0 3.2 0.00 0.00 0.00 95 1017.6
20260906122910 25 155 0.0 1.6 0.00 0.00 0.00 96 1017.7
20260906122404 24 160 1.6 3.2 0.00 0.00 0.00 96 1017.4
20260906121902 24 171 3.2 9.7 0.00 0.00 0.00 97 1017.4
20260906121357 24 176 3.2 6.4 0.00 0.00 0.00 97 1017.2
20260906120853 24 176 3.2 6.4 0.00 0.00 0.00 97 1017.4
20260906120349 24 184 4.8 6.4 0.00 0.00 0.00 97 1017.1
20260906115845 24 176 1.6 6.4 0.00 0.00 0.00 97 1017.3
20260906115340 24 166 1.6 6.4 0.00 0.00 0.00 97 1017.1
20260906114839 24 173 3.2 6.4 0.00 0.00 0.00 97 1017.1
20260906114335 24 175 3.2 6.4 0.00 0.00 0.00 97 1017.1
20260906113830 24 191 9.7 11.3 0.00 0.00 0.00 97 1017.1
20260906113328 24 178 4.8 6.4 0.00 0.00 0.00 97 1016.9
20260906112824 25 188 4.8 6.4 0.00 0.00 0.00 97 1017.1
20260906112315 25 173 3.2 9.7 0.00 0.00 0.00 97 1016.9
20260906111814 25 191 3.2 6.4 0.00 0.00 0.00 96 1017.0
20260906111313 25 177 4.8 6.4 0.00 0.00 0.00 96 1017.0
20260906110803 25 174 3.2 6.4 0.00 0.00 0.00 96 1016.6
20260906110259 25 171 3.2 11.3 0.00 0.00 0.00 96 1016.9
20260906105758 25 173 3.2 6.4 0.00 0.00 0.00 96 1016.9
20260906105254 25 181 4.8 11.3 0.00 0.00 0.00 96 1016.8
20260906104749 25 200 8.0 11.3 0.00 0.00 0.00 96 1016.8
20260906104247 25 170 3.2 4.8 0.00 0.00 0.00 96 1016.8
20260906103745 25 178 3.2 6.4 0.00 0.00 0.00 96 1016.7
20260906103239 25 167 3.2 4.8 0.00 0.00 0.00 96 1016.6
20260906102736 25 164 1.6 3.2 0.00 0.00 0.00 95 1016.6
20260906102235 25 185 3.2 9.7 0.00 0.00 0.00 95 1016.7
20260906101730 25 171 3.2 9.7 0.00 0.00 0.00 95 1016.6
20260906101225 25 182 3.2 9.7 0.00 0.00 0.00 95 1016.7
20260906100720 25 180 4.8 6.4 0.00 0.00 0.00 95 1016.7
20260906100214 25 181 4.8 9.7 0.00 0.00 0.00 95 1016.8
20260906095709 25 184 6.4 9.7 0.00 0.00 0.00 95 1016.7
20260906095204 25 171 4.8 9.7 0.00 0.00 0.00 95 1016.5
20260906094703 25 177 3.2 6.4 0.00 0.00 0.00 95 1016.5
20260906094159 25 177 3.2 9.7 0.00 0.00 0.00 95 1016.3
20260906093655 25 177 4.8 11.3 0.00 0.00 0.00 94 1016.5
20260906093150 25 159 1.6 9.7 0.00 0.00 0.00 94 1016.5
20260906092645 25 171 3.2 6.4 0.00 0.00 0.00 94 1016.4
20260906092144 25 179 4.8 11.3 0.00 0.00 0.00 94 1016.4
20260906091641 25 184 4.8 9.7 0.00 0.00 0.00 94 1016.4
20260906091137 25 199 6.4 6.4 0.00 0.00 0.00 94 1016.3
20260906090632 25 166 3.2 3.2 0.00 0.00 0.00 93 1016.2
20260906090126 25 172 1.6 6.4 0.00 0.00 0.00 93 1016.2
20260906085626 25 180 4.8 9.7 0.00 0.00 0.00 93 1016.2
20260906085120 25 161 1.6 4.8 0.00 0.00 0.00 92 1016.1
20260906084615 25 173 3.2 4.8 0.00 0.00 0.00 92 1015.9
20260906084114 25 179 4.8 6.4 0.00 0.00 0.00 92 1016.0
20260906083610 25 176 4.8 6.4 0.00 0.00 0.00 92 1016.1
20260906083109 26 185 4.8 6.4 0.00 0.00 0.00 91 1016.2
20260906082605 26 172 3.2 4.8 0.00 0.00 0.00 91 1016.0
20260906082100 26 186 3.2 4.8 0.00 0.00 0.00 91 1015.9
20260906081555 26 227 8.0 11.3 0.00 0.00 0.00 90 1016.0
20260906081045 26 171 3.2 4.8 0.00 0.00 0.00 90 1015.8
20260906080542 26 180 4.8 6.4 0.00 0.00 0.00 90 1015.9
20260906080037 26 197 8.0 9.7 0.00 0.00 0.00 90 1015.7
20260906075531 26 181 4.8 6.4 0.00 0.00 0.00 89 1015.8
20260906075020 26 177 4.8 6.4 0.00 0.00 0.00 89 1016.0
20260906074515 26 159 1.6 4.8 0.00 0.00 0.00 89 1016.0
20260906074014 26 179 3.2 4.8 0.00 0.00 0.00 89 1015.9
20260906073509 26 170 3.2 4.8 0.00 0.00 0.00 88 1015.8
20260906073005 26 176 3.2 4.8 0.00 0.00 0.00 88 1015.9
20260906072500 26 161 3.2 4.8 0.00 0.00 0.00 88 1015.9
20260906071955 26 191 4.8 6.4 0.00 0.00 0.00 88 1015.8
20260906071452 26 175 3.2 6.4 0.00 0.00 0.00 87 1016.0
20260906070947 26 192 6.4 6.4 0.00 0.00 0.00 87 1015.9
20260906070442 26 189 4.8 4.8 0.00 0.00 0.00 87 1016.1
20260906065938 26 166 1.6 4.8 0.00 0.00 0.00 87 1016.2
20260906065432 26 170 3.2 3.2 0.00 0.00 0.00 86 1016.1
20260906064928 26 179 4.8 4.8 0.00 0.00 0.00 86 1016.3
20260906064424 26 162 1.6 3.2 0.00 0.00 0.00 86 1016.3
20260906063919 26 160 1.6 1.6 0.00 0.00 0.00 86 1016.3
20260906063414 26 161 3.2 3.2 0.00 0.00 0.00 85 1016.5
20260906062909 26 160 1.6 1.6 0.00 0.00 0.00 85 1016.5
20260906062408 26 162 1.6 3.2 0.00 0.00 0.00 85 1016.5
20260906061903 26 158 1.6 1.6 0.00 0.00 0.00 84 1016.4
20260906061354 26 159 0.0 1.6 0.00 0.00 0.00 84 1016.6
20260906060848 26 159 0.0 1.6 0.00 0.00 0.00 84 1016.6
20260906060346 26 160 0.0 3.2 0.00 0.00 0.00 83 1016.5
20260906055842 26 159 1.6 1.6 0.00 0.00 0.00 83 1016.5
20260906055337 27 161 1.6 3.2 0.00 0.00 0.00 83 1016.8
20260906054832 27 161 1.6 3.2 0.00 0.00 0.00 83 1016.6
20260906054327 27 160 0.0 0.0 0.00 0.00 0.00 82 1016.6
20260906053824 27 160 0.0 1.6 0.00 0.00 0.00 82 1016.6
20260906053319 27 160 1.6 3.2 0.00 0.00 0.00 81 1016.5
20260906052814 27 160 1.6 1.6 0.00 0.00 0.00 81 1016.4
20260906052311 27 160 1.6 1.6 0.00 0.00 0.00 80 1016.4
20260906051808 27 159 0.0 3.2 0.00 0.00 0.00 80 1016.5
20260906051307 27 160 0.0 3.2 0.00 0.00 0.00 80 1016.4
20260906050803 27 164 1.6 3.2 0.00 0.00 0.00 79 1016.3
20260906050258 27 160 1.6 3.2 0.00 0.00 0.00 79 1016.5
20260906045756 27 167 3.2 4.8 0.00 0.00 0.00 79 1016.3
20260906045251 27 163 3.2 4.8 0.00 0.00 0.00 79 1016.1
20260906044747 27 159 1.6 3.2 0.00 0.00 0.00 78 1016.3
20260906044242 27 158 0.0 1.6 0.00 0.00 0.00 78 1016.3
20260906043738 27 162 1.6 3.2 0.00 0.00 0.00 78 1016.3
20260906043234 27 160 1.6 3.2 0.00 0.00 0.00 78 1016.2
20260906042733 27 159 0.0 3.2 0.00 0.00 0.00 77 1016.2
20260906042232 27 159 1.6 3.2 0.00 0.00 0.00 77 1016.2
20260906041728 27 162 3.2 4.8 0.00 0.00 0.00 77 1016.1
20260906041223 28 161 1.6 3.2 0.00 0.00 0.00 76 1016.2
20260906040719 28 163 1.6 3.2 0.00 0.00 0.00 75 1015.9
20260906040214 28 161 1.6 3.2 0.00 0.00 0.00 74 1015.9
20260906035709 28 160 1.6 3.2 0.00 0.00 0.00 74 1015.7
20260906035204 28 159 0.0 1.6 0.00 0.00 0.00 74 1015.9
20260906034658 28 159 1.6 1.6 0.00 0.00 0.00 74 1015.8
20260906034153 28 159 1.6 1.6 0.00 0.00 0.00 73 1015.7
20260906033649 28 160 1.6 3.2 0.00 0.00 0.00 73 1015.5
20260906033143 28 160 1.6 3.2 0.00 0.00 0.00 73 1015.6
20260906032640 28 157 1.6 1.6 0.00 0.00 0.00 72 1015.3
20260906032140 28 157 1.6 1.6 0.00 0.00 0.00 72 1015.5
20260906031635 28 156 0.0 1.6 0.00 0.00 0.00 72 1015.5
20260906031130 28 156 0.0 0.0 0.00 0.00 0.00 72 1015.4
20260906030630 28 156 0.0 0.0 0.00 0.00 0.00 72 1015.2
20260906030125 28 156 0.0 0.0 0.00 0.00 0.00 71 1015.1
20260906025624 28 158 0.0 1.6 0.00 0.00 0.00 71 1015.1
20260906025123 28 155 0.0 0.0 0.00 0.00 0.00 72 1015.2
20260906024618 28 156 0.0 0.0 0.00 0.00 0.00 71 1015.2
20260906024113 29 156 0.0 0.0 0.00 0.00 0.00 69 1015.0
20260906023609 29 156 0.0 0.0 0.00 0.00 0.00 68 1015.0
20260906023103 29 156 1.6 1.6 0.00 0.00 0.00 67 1015.0
20260906022558 30 156 0.0 1.6 0.00 0.00 0.00 67 1015.0
20260906022054 30 157 0.0 1.6 0.00 0.00 0.00 67 1014.9
20260906021544 30 158 0.0 0.0 0.00 0.00 0.00 66 1014.8
20260906021043 30 159 1.6 3.2 0.00 0.00 0.00 66 1014.9
20260906020542 30 157 0.0 1.6 0.00 0.00 0.00 66 1014.6
20260906020036 30 158 0.0 3.2 0.00 0.00 0.00 65 1014.6
20260906015535 30 161 3.2 3.2 0.00 0.00 0.00 64 1014.6
20260906015030 30 157 0.0 1.6 0.00 0.00 0.00 64 1014.3
20260906014525 30 160 1.6 4.8 0.00 0.00 0.00 64 1014.1
20260906014021 30 157 0.0 1.6 0.00 0.00 0.00 65 1014.1
20260906013516 30 157 1.6 1.6 0.00 0.00 0.00 64 1014.2
20260906013011 30 157 0.0 1.6 0.00 0.00 0.00 64 1014.1
20260906012506 30 158 0.0 3.2 0.00 0.00 0.00 63 1014.2
20260906012006 30 157 1.6 3.2 0.00 0.00 0.00 62 1014.2
20260906011502 31 158 1.6 1.6 0.00 0.00 0.00 62 1014.1
20260906010956 31 158 0.0 1.6 0.00 0.00 0.00 62 1014.1
20260906010451 31 157 0.0 1.6 0.00 0.00 0.00 61 1013.9
20260906005943 31 164 1.6 3.2 0.00 0.00 0.00 60 1014.0
20260906005441 31 161 1.6 3.2 0.00 0.00 0.00 60 1013.9
20260906004939 31 159 3.2 3.2 0.00 0.00 0.00 59 1014.1
20260906004434 32 158 0.0 3.2 0.00 0.00 0.00 59 1013.9
20260906003925 32 158 0.0 3.2 0.00 0.00 0.00 59 1013.7
20260906003419 32 176 3.2 4.8 0.00 0.00 0.00 59 1013.9
20260906002915 32 158 1.6 3.2 0.00 0.00 0.00 57 1013.9
20260906002414 32 163 3.2 4.8 0.00 0.00 0.00 58 1013.9
20260906001909 32 161 1.6 3.2 0.00 0.00 0.00 57 1013.9
20260906001405 33 160 1.6 3.2 0.00 0.00 0.00 57 1014.0
20260906000900 33 161 1.6 3.2 0.00 0.00 0.00 56 1014.0
20260906000359 33 160 1.6 4.8 0.00 0.00 0.00 56 1013.9
20260905235849 33 175 6.4 9.7 0.00 0.00 0.00 55 1013.8
20260905235343 33 174 3.2 6.4 0.00 0.00 0.00 55 1013.8
20260905234839 33 167 3.2 6.4 0.00 0.00 0.00 55 1014.0
20260905234334 33 174 4.8 6.4 0.00 0.00 0.00 55 1014.2
20260905233829 33 160 3.2 6.4 0.00 0.00 0.00 55 1014.2
20260905233324 34 158 4.8 6.4 0.00 0.00 0.00 54 1014.0
20260905232823 34 167 1.6 6.4 0.00 0.00 0.00 53 1013.8
20260905232320 34 166 1.6 3.2 0.00 0.00 0.00 53 1013.9
20260905231815 34 168 4.8 6.4 0.00 0.00 0.00 52 1013.7
20260905231310 35 200 8.0 9.7 0.00 0.00 0.00 52 1013.6
20260905230806 35 180 8.0 11.3 0.00 0.00 0.00 52 1013.8
20260905230304 35 176 6.4 9.7 0.00 0.00 0.00 51 1013.8
20260905225804 35 176 3.2 11.3 0.00 0.00 0.00 52 1013.5
20260905225259 35 175 1.6 6.4 0.00 0.00 0.00 52 1013.7
20260905224758 35 165 6.4 11.3 0.00 0.00 0.00 51 1013.7
20260905224254 35 175 3.2 6.4 0.00 0.00 0.00 51 1013.5
20260905223749 35 211 8.0 11.3 0.00 0.00 0.00 51 1013.6
20260905223246 35 170 4.8 9.7 0.00 0.00 0.00 51 1013.4
20260905222741 35 205 3.2 6.4 0.00 0.00 0.00 51 1013.4
20260905222240 35 248 9.7 12.9 0.00 0.00 0.00 51 1013.4
20260905221730 35 206 6.4 11.3 0.00 0.00 0.00 51 1013.6
20260905221227 35 168 4.8 6.4 0.00 0.00 0.00 50 1013.4
20260905220722 35 183 4.8 9.7 0.00 0.00 0.00 52 1013.6
20260905220218 35 176 6.4 17.7 0.00 0.00 0.00 52 1013.5
20260905215717 35 177 6.4 12.9 0.00 0.00 0.00 51 1013.8
20260905215214 35 174 6.4 9.7 0.00 0.00 0.00 51 1013.6
20260905214710 35 181 6.4 12.9 0.00 0.00 0.00 51 1013.7
20260905214204 36 199 6.4 12.9 0.00 0.00 0.00 50 1013.6
20260905213700 36 183 6.4 12.9 0.00 0.00 0.00 50 1013.5
20260905213155 36 215 8.0 16.1 0.00 0.00 0.00 47 1013.5
20260905212650 36 174 8.0 11.3 0.00 0.00 0.00 47 1013.7
20260905212149 36 180 3.2 9.7 0.00 0.00 0.00 48 1013.7
20260905211644 36 171 8.0 12.9 0.00 0.00 0.00 47 1013.8
20260905211140 36 238 14.5 17.7 0.00 0.00 0.00 47 1014.0
20260905210636 36 179 6.4 11.3 0.00 0.00 0.00 47 1013.9
20260905210131 36 172 6.4 9.7 0.00 0.00 0.00 47 1014.0
20260905205630 36 168 1.6 6.4 0.00 0.00 0.00 47 1014.1
20260905205130 36 212 6.4 14.5 0.00 0.00 0.00 48 1014.3
20260905204624 37 192 6.4 9.7 0.00 0.00 0.00 45 1014.7
20260905204119 37 141 3.2 9.7 0.00 0.00 0.00 44 1014.7
20260905203614 38 191 4.8 9.7 0.00 0.00 0.00 43 1014.7
20260905203109 38 142 1.6 3.2 0.00 0.00 0.00 42 1014.6
20260905202604 39 136 3.2 4.8 0.00 0.00 0.00 39 1014.6
20260905202059 39 143 3.2 4.8 0.00 0.00 0.00 38 1014.7
20260905201554 38 140 1.6 9.7 0.00 0.00 0.00 38 1014.8
20260905201054 38 126 1.6 9.7 0.00 0.00 0.00 40 1015.0
20260905200549 38 139 1.6 6.4 0.00 0.00 0.00 40 1014.9
20260905200044 38 142 1.6 3.2 0.00 0.00 0.00 40 1015.0
20260905195538 37 149 0.0 4.8 0.00 0.00 0.00 39 1015.0
20260905195034 37 164 4.8 12.9 0.00 0.00 0.00 41 1015.2
20260905194533 38 184 8.0 9.7 0.00 0.00 0.00 40 1015.3
20260905194033 38 163 4.8 6.4 0.00 0.00 0.00 40 1015.2
20260905193527 38 134 3.2 9.7 0.00 0.00 0.00 41 1015.2
20260905193023 38 142 3.2 3.2 0.00 0.00 0.00 39 1015.2
20260905192518 38 148 1.6 1.6 0.00 0.00 0.00 41 1015.4
20260905192015 38 142 1.6 4.8 0.00 0.00 0.00 39 1015.5
20260905191513 38 141 1.6 6.4 0.00 0.00 0.00 41 1015.4
20260905191012 38 114 3.2 9.7 0.00 0.00 0.00 41 1015.5
20260905190510 37 141 1.6 3.2 0.00 0.00 0.00 40 1015.4
20260905190004 37 120 6.4 9.7 0.00 0.00 0.00 41 1015.6
20260905185459 37 112 3.2 4.8 0.00 0.00 0.00 42 1015.5
20260905184957 37 124 4.8 6.4 0.00 0.00 0.00 41 1015.6
20260905184453 37 137 1.6 3.2 0.00 0.00 0.00 41 1015.9
20260905183951 37 146 1.6 4.8 0.00 0.00 0.00 42 1015.9
20260905183451 37 125 3.2 4.8 0.00 0.00 0.00 42 1016.0
20260905182946 37 146 1.6 6.4 0.00 0.00 0.00 43 1015.9
20260905182445 37 174 0.0 3.2 0.00 0.00 0.00 44 1016.0
20260905181940 36 111 6.4 9.7 0.00 0.00 0.00 46 1016.0
20260905181435 36 137 0.0 6.4 0.00 0.00 0.00 45 1016.0
20260905180934 37 170 3.2 4.8 0.00 0.00 0.00 46 1016.1
20260905180429 36 133 3.2 4.8 0.00 0.00 0.00 46 1016.0
20260905175924 36 142 0.0 3.2 0.00 0.00 0.00 48 1016.1
20260905175423 36 135 3.2 6.4 0.00 0.00 0.00 47 1016.1
20260905174918 36 150 1.6 4.8 0.00 0.00 0.00 46 1016.0
20260905174409 37 137 3.2 4.8 0.00 0.00 0.00 46 1016.1
20260905173904 36 146 0.0 3.2 0.00 0.00 0.00 48 1016.1
20260905173401 36 185 3.2 4.8 0.00 0.00 0.00 48 1016.2
20260905172855 36 142 1.6 4.8 0.00 0.00 0.00 49 1016.1
20260905172352 35 132 4.8 6.4 0.00 0.00 0.00 50 1016.3
20260905171849 36 130 3.2 3.2 0.00 0.00 0.00 50 1016.2
20260905171345 35 160 1.6 3.2 0.00 0.00 0.00 49 1016.3
20260905170842 35 164 1.6 4.8 0.00 0.00 0.00 51 1016.4
20260905170338 35 160 3.2 4.8 0.00 0.00 0.00 51 1016.6
20260905165836 35 153 1.6 3.2 0.00 0.00 0.00 51 1016.8